Springfield, OH

9:57 AM EST on December 17, 2017 (GMT -0500)
Springfield-Beckley Municipal

Weather History for KSGH - May, 2014

Change the Weather History Date:

Monday, May 5, 2014

  Actual Average (KFFO) Record (KFFO)
Temperature  
Mean Temperature 52 °F -  
Max Temperature 61 °F 69 °F 82 °F (2015)
Min Temperature 44 °F 48 °F 32 °F (2011)
Degree Days  
Heating Degree Days 12    
Growing Degree Days 2 (Base 50)    
Moisture  
Dew Point 38 °F    
Average Humidity 63    
Maximum Humidity 81    
Minimum Humidity 46    
Precipitation  
Precipitation 0.06 in - - ()
Sea Level Pressure  
Sea Level Pressure 29.98 in    
Wind  
Wind Speed 11 mph (East)    
Max Wind Speed 18 mph    
Max Gust Speed 24 mph    
Visibility 8 miles    
Events Rain , Thunderstorm    
Averages and records for this station are not official NWS values.
T = Trace of Precipitation, MM = Missing Value Source: NWS Daily Summary

Daily Weather History Graph

Daily Weather History Graph

Search for Another Location

Airport or City:

Trip Planner

Search our weather history database for the weather conditions in past years. The results will help you decide how hot, cold, wet, or windy it might be!

Date:

Astronomy

May. 05, 2014 Rise Set
Actual Time 6:30 AM EDT 8:33 PM EDT
Civil Twilight 6:01 AM EDT 9:03 PM EDT
Nautical Twilight 5:25 AM EDT 9:39 PM EDT
Astronomical Twilight 4:46 AM EDT 10:19 PM EDT
Moon 11:49 AM EDT (5/5) 1:17 AM EDT (5/5)
Length of Visible Light 15h 02m
Length of Day
14h 02m
Waxing Crescent, 36% of the Moon is Illuminated
May 5
Waxing Crescent
May 6
First Quarter
May 14
Full
May 21
Last Quarter
May 28
New

Hourly Weather History & Observations

Time (EDT) Temp. Windchill Dew Point Humidity Pressure Visibility Wind Dir Wind Speed Gust Speed Precip Events Conditions
12:56 AM 46.9 °F - 32.0 °F 56% 30.06 in 9.0 mi NNE 6.9 mph - N/A   Clear
1:56 AM 45.9 °F 41.7 °F 34.0 °F 63% 30.05 in 9.0 mi ENE 8.1 mph - N/A   Clear
2:56 AM 46.9 °F - 36.0 °F 66% 30.03 in 9.0 mi East 9.2 mph - N/A   Mostly Cloudy
3:56 AM 46.9 °F - 36.0 °F 66% 30.03 in 9.0 mi East 10.4 mph - N/A   Mostly Cloudy
4:56 AM 46.9 °F - 36.0 °F 66% 30.03 in 9.0 mi East 13.8 mph - N/A   Mostly Cloudy
5:56 AM 46.9 °F - 36.0 °F 66% 30.04 in 9.0 mi ESE 11.5 mph - 0.00 in Rain Light Rain
6:56 AM 45.9 °F 40.4 °F 36.0 °F 68% 30.04 in 8.0 mi East 11.5 mph - 0.00 in   Scattered Clouds
7:56 AM 46.9 °F - 36.0 °F 66% 30.06 in 8.0 mi ESE 11.5 mph - N/A   Mostly Cloudy
8:56 AM 47.8 °F - 36.0 °F 63% 30.03 in 8.0 mi ESE 18.4 mph 21.9 mph N/A   Partly Cloudy
9:56 AM 48.9 °F - 34.9 °F 58% 30.00 in 8.0 mi ESE 18.4 mph - N/A   Partly Cloudy
10:20 AM 48.2 °F - 35.6 °F 62% 30.02 in 8.0 mi East 13.8 mph 24.2 mph N/A Thunderstorm Mostly Cloudy
10:45 AM 44.6 °F 38.4 °F 39.2 °F 81% 30.00 in 2.5 mi East 12.7 mph - 0.06 in Rain , Thunderstorm Light Thunderstorms and Rain
10:56 AM 45.9 °F 39.7 °F 39.9 °F 80% 30.01 in 6.0 mi East 13.8 mph - 0.06 in Rain Light Rain
11:56 AM 48.9 °F - 41.0 °F 74% 30.01 in 8.0 mi ESE 12.7 mph - 0.00 in   Partly Cloudy
12:56 PM 54.0 °F - 41.9 °F 64% 29.97 in 8.0 mi East 15.0 mph 20.7 mph N/A   Clear
1:56 PM 55.9 °F - 41.0 °F 57% 29.97 in 8.0 mi East 16.1 mph - N/A   Partly Cloudy
2:56 PM 55.9 °F - 41.0 °F 57% 29.95 in 8.0 mi East 13.8 mph - N/A   Clear
3:56 PM 59.9 °F - 39.9 °F 48% 29.93 in 8.0 mi ESE 16.1 mph - N/A   Clear
4:56 PM 61.9 °F - 41.0 °F 46% 29.91 in 8.0 mi East 11.5 mph - N/A   Clear
5:56 PM 61.0 °F - 41.9 °F 49% 29.91 in 8.0 mi ENE 11.5 mph - N/A   Clear
6:56 PM 59.9 °F - 38.8 °F 46% 29.90 in 7.0 mi East 11.5 mph - N/A   Clear
7:56 PM 55.9 °F - 36.9 °F 49% 29.89 in 7.0 mi ENE 12.7 mph - N/A   Clear
8:56 PM 50.9 °F - 36.9 °F 59% 29.91 in 9.0 mi ENE 8.1 mph - N/A   Clear
9:56 PM 46.9 °F - 38.8 °F 73% 29.93 in 9.0 mi ENE 6.9 mph - N/A   Clear
10:56 PM 45.9 °F 42.3 °F 37.9 °F 74% 29.94 in 9.0 mi NE 6.9 mph - N/A   Clear
11:56 PM 45.0 °F 40.6 °F 38.8 °F 79% 29.94 in 9.0 mi NE 8.1 mph - N/A   Clear